WZZ8745 EPKK-ENBR

Flight info

Callsign WZZ8745
Flight time N/A
Altitude 36000
Route LUMVE L619 NUDRO T710 KULUV DCT NAVDI DCT ALUKA DCT NEDIK DCT ODDON M602 LUTUS DCT PEVEB DCT BADAB
Aircraft A21N/M-SDE1E2E3FGIJ1J4RWXY/LB1

Departure

Time N/A
Airport Kraków John Paul II International Airport (EPKK)

Arrival

Time 2026-05-04 00:28
Airport Bergen Airport, Flesland (ENBR)
Time Latitude Longitude Altitude Speed Heading
2026-05-04 00:05 59.40510 5.89563 25548 ft 491 kts 344°
2026-05-04 00:05 59.43881 5.88451 25008 ft 496 kts 347°
2026-05-04 00:05 59.47331 5.87744 24460 ft 499 kts 350°
2026-05-04 00:06 59.50816 5.87170 23893 ft 499 kts 350°
2026-05-04 00:06 59.54224 5.86652 23343 ft 495 kts 351°
2026-05-04 00:06 59.57641 5.86132 22761 ft 484 kts 351°
2026-05-04 00:06 59.60963 5.85611 22178 ft 474 kts 350°
2026-05-04 00:07 59.64183 5.85090 21627 ft 464 kts 350°
2026-05-04 00:07 59.67377 5.84564 21091 ft 454 kts 350°
2026-05-04 00:07 59.70495 5.84048 20570 ft 445 kts 350°
2026-05-04 00:07 59.73582 5.83537 20061 ft 436 kts 350°
2026-05-04 00:08 59.76565 5.83044 19569 ft 428 kts 349°
2026-05-04 00:08 59.79523 5.82554 19083 ft 420 kts 349°
2026-05-04 00:08 59.82283 5.82016 18631 ft 410 kts 347°
2026-05-04 00:08 59.85080 5.81130 18191 ft 400 kts 344°
2026-05-04 00:09 59.87790 5.80162 17781 ft 392 kts 344°
2026-05-04 00:09 59.90468 5.79181 17386 ft 383 kts 343°
2026-05-04 00:09 59.93052 5.78238 17028 ft 375 kts 343°
2026-05-04 00:09 59.95573 5.77319 16640 ft 368 kts 343°
2026-05-04 00:10 59.98079 5.76406 16224 ft 363 kts 343°
2026-05-04 00:10 60.00529 5.75518 15816 ft 357 kts 343°
2026-05-04 00:10 60.02963 5.74632 15412 ft 352 kts 343°
2026-05-04 00:10 60.05364 5.73760 15010 ft 346 kts 343°
2026-05-04 00:11 60.07722 5.72903 14613 ft 341 kts 343°
2026-05-04 00:11 60.10034 5.72061 14204 ft 337 kts 343°
2026-05-04 00:11 60.12332 5.71222 13744 ft 334 kts 344°
2026-05-04 00:11 60.14643 5.70472 13276 ft 333 kts 346°
2026-05-04 00:12 60.16950 5.69819 12833 ft 330 kts 347°
2026-05-04 00:12 60.19216 5.69194 12397 ft 326 kts 347°
2026-05-04 00:12 60.21455 5.68575 11929 ft 324 kts 347°
2026-05-04 00:12 60.23703 5.67947 11382 ft 325 kts 347°
2026-05-04 00:13 60.25937 5.67323 10898 ft 322 kts 347°
2026-05-04 00:13 60.28121 5.66712 10473 ft 318 kts 347°
2026-05-04 00:13 60.30285 5.66106 10057 ft 314 kts 347°
2026-05-04 00:13 60.32448 5.65501 9876 ft 301 kts 347°
2026-05-04 00:14 60.34466 5.64938 9681 ft 292 kts 347°
2026-05-04 00:14 60.36469 5.64371 9385 ft 285 kts 347°
2026-05-04 00:14 60.38419 5.63813 8945 ft 284 kts 348°
2026-05-04 00:14 60.40371 5.63254 8556 ft 282 kts 348°
2026-05-04 00:15 60.42294 5.62706 8172 ft 279 kts 348°
2026-05-04 00:15 60.44167 5.62176 8001 ft 268 kts 348°
2026-05-04 00:15 60.45974 5.61669 7913 ft 255 kts 348°
2026-05-04 00:15 60.47685 5.61274 7812 ft 244 kts 352°
2026-05-04 00:16 60.49345 5.61207 7807 ft 235 kts 356°
2026-05-04 00:16 60.50967 5.61242 7820 ft 235 kts 356°
2026-05-04 00:16 60.52613 5.61266 7820 ft 234 kts 353°
2026-05-04 00:16 60.54209 5.60794 7822 ft 230 kts 341°
2026-05-04 00:17 60.55715 5.59824 7826 ft 228 kts 337°
2026-05-04 00:17 60.57220 5.58747 7827 ft 228 kts 336°
2026-05-04 00:17 60.58666 5.57549 7823 ft 226 kts 328°
2026-05-04 00:17 60.59972 5.55823 7829 ft 224 kts 319°
2026-05-04 00:18 60.61190 5.53829 7833 ft 223 kts 317°
2026-05-04 00:18 60.62374 5.51839 7824 ft 223 kts 317°
2026-05-04 00:18 60.63464 5.49616 7820 ft 221 kts 306°
2026-05-04 00:18 60.64325 5.47037 7830 ft 220 kts 300°
2026-05-04 00:19 60.65102 5.44374 7827 ft 220 kts 299°
2026-05-04 00:19 60.65864 5.41700 7823 ft 219 kts 296°
2026-05-04 00:19 60.66423 5.38826 7831 ft 219 kts 285°
2026-05-04 00:19 60.66726 5.35772 7545 ft 220 kts 280°
2026-05-04 00:20 60.66933 5.32684 7204 ft 220 kts 271°
2026-05-04 00:20 60.66540 5.29692 6857 ft 223 kts 240°
2026-05-04 00:20 60.65407 5.27528 6539 ft 228 kts 211°
2026-05-04 00:20 60.63839 5.26813 6228 ft 236 kts 182°
2026-05-04 00:21 60.62208 5.26997 5953 ft 235 kts 180°
2026-05-04 00:21 60.60587 5.27166 5677 ft 233 kts 181°
2026-05-04 00:21 60.58970 5.27319 5399 ft 231 kts 181°
2026-05-04 00:21 60.57387 5.27463 5127 ft 229 kts 181°
2026-05-04 00:22 60.55800 5.27604 4864 ft 227 kts 180°
2026-05-04 00:22 60.54224 5.27753 4599 ft 227 kts 181°
2026-05-04 00:22 60.52655 5.27892 4313 ft 225 kts 181°
2026-05-04 00:22 60.51120 5.27495 3980 ft 219 kts 208°
2026-05-04 00:23 60.50026 5.25510 3695 ft 213 kts 239°
2026-05-04 00:23 60.49316 5.22852 3428 ft 213 kts 243°
2026-05-04 00:23 60.48614 5.20241 3149 ft 213 kts 242°
2026-05-04 00:23 60.47869 5.17613 2983 ft 212 kts 234°
2026-05-04 00:24 60.46703 5.15861 2964 ft 217 kts 195°
2026-05-04 00:24 60.45202 5.15898 2880 ft 217 kts 172°
2026-05-04 00:24 60.43746 5.16583 2714 ft 211 kts 167°
2026-05-04 00:24 60.42333 5.17321 2594 ft 210 kts 168°
2026-05-04 00:25 60.40897 5.17948 2378 ft 205 kts 171°
2026-05-04 00:25 60.39543 5.18419 2137 ft 198 kts 172°
2026-05-04 00:25 60.38216 5.18846 1821 ft 187 kts 172°
2026-05-04 00:25 60.36985 5.19250 1569 ft 171 kts 172°
2026-05-04 00:26 60.35843 5.19634 1306 ft 159 kts 171°
2026-05-04 00:26 60.34804 5.19982 1076 ft 147 kts 171°
2026-05-04 00:26 60.33816 5.20316 850 ft 140 kts 171°
2026-05-04 00:26 60.32860 5.20643 681 ft 140 kts 170°
2026-05-04 00:27 60.31904 5.20960 497 ft 140 kts 170°
2026-05-04 00:27 60.30944 5.21281 320 ft 139 kts 169°
2026-05-04 00:27 60.29992 5.21594 165 ft 135 kts 169°
2026-05-04 00:27 60.29176 5.21877 163 ft 96 kts 170°
2026-05-04 00:28 60.28685 5.22046 164 ft 46 kts 170°
2026-05-04 00:28 60.28402 5.22143 156 ft 30 kts 168°
2026-05-04 00:28 60.28282 5.22214 156 ft 8 kts 107°
2026-05-04 00:28 60.28283 5.22247 157 ft 0 kts 86°
2026-05-04 00:29 60.28282 5.22238 157 ft 1 kts 86°
2026-05-04 00:29 60.28280 5.22306 160 ft 6 kts 94°
2026-05-04 00:29 60.28279 5.22361 162 ft 1 kts 89°
2026-05-04 00:29 60.28279 5.22367 162 ft 0 kts 87°
2026-05-04 00:30 60.28279 5.22373 162 ft 1 kts 87°
2026-05-04 00:30 60.28283 5.22430 163 ft 7 kts 75°
2026-05-04 00:30 60.28338 5.22482 165 ft 11 kts 350°
2026-05-04 00:30 60.28415 5.22454 166 ft 10 kts 350°
2026-05-04 00:31 60.28491 5.22427 167 ft 11 kts 351°
2026-05-04 00:31 60.28579 5.22399 169 ft 14 kts 351°
2026-05-04 00:31 60.28672 5.22369 170 ft 12 kts 349°
2026-05-04 00:31 60.28753 5.22344 172 ft 11 kts 351°
2026-05-04 00:32 60.28826 5.22320 174 ft 10 kts 351°
2026-05-04 00:32 60.28889 5.22300 174 ft 7 kts 354°
2026-05-04 00:32 60.28930 5.22341 176 ft 5 kts 64°
2026-05-04 00:32 60.28947 5.22393 177 ft 3 kts 37°
2026-05-04 00:33 60.28981 5.22402 178 ft 6 kts 352°
2026-05-04 00:33 60.29021 5.22414 178 ft 0 kts 54°
2026-05-04 00:33 60.29024 5.22426 179 ft 3 kts 66°
2026-05-04 00:34 60.29035 5.22507 179 ft 7 kts 79°
2026-05-04 00:34 60.29029 5.22608 179 ft 8 kts 136°
2026-05-04 00:34 60.28992 5.22648 179 ft 4 kts 157°
2026-05-04 00:34 60.28988 5.22652 179 ft 0 kts 158°